308  
AXUS43 KLBF 131510  
MISLBF  
 
WESTERN AND NORTH CENTRAL NEBRASKA HOURLY WEATHER ROUNDUP  
NATIONAL WEATHER SERVICE NORTH PLATTE NE  
1000 AM CDT MON JUL 13 2020  
 
NOTE: "FAIR" INDICATES FEW OR NO CLOUDS BELOW 12,000 FEET WITH NO  
SIGNIFICANT WEATHER AND/OR OBSTRUCTIONS TO VISIBILITY.  
 
NOTE: STATIONS NOT REPORTING SKY/WEATHER AND PRESSURE ARE  
PROVIDED BY RAWS AND APRS NETWORKS AND ARE NOT UNDER NATIONAL  
WEATHER SERVICE QUALITY CONTROL.  
   
..OBSERVATIONS IN AND NEAR THE EASTERN PANHANDLE OF NEBRASKA
 
 
 
CITY SKY/WX TMP DP RH WIND PRES REMARKS  
PINE RIDGE SUNNY 76 43 30 N20G30 29.87F  
GORDON FAIR 74 51 44 NW16G22 29.88R  
CHADRON SUNNY 77 45 32 NE15G24 29.89R  
ALLIANCE PTSUNNY 76 49 38 MISG 29.90R  
SIDNEY N/A N/A N/A N/A MISG 29.92R  
CRESCENT LAKE N/A 80 50 34 NW9 N/A  

 
   
..OBSERVATIONS IN NORTHERN NEBRASKA AND FAR SOUTHERN SOUTH DAKOTA
 
 
 
CITY SKY/WX TMP DP RH WIND PRES REMARKS  
WINNER FAIR 81 62 52 SW18 29.70R  
VALENTINE SUNNY 82 63 52 W16G26 29.77R  
AINSWORTH SUNNY 76 66 71 SW14G21 29.78R  
O'NEILL SUNNY 78 61 56 S17G28 29.78S  
THEDFORD SUNNY 79 65 62 SW15G24 29.83S  
BROKEN BOW SUNNY 78 64 61 MISG 29.83F  
ORD SUNNY 77 65 66 S17G23 29.82F  
ALBION SUNNY 76 66 72 S10 29.85F  
EWING N/A 77 68 72 S13G21 N/A  
CHAMBERS N/A 77 66 69 S6 N/A  
BUTTE N/A 77 65 67 S16G28 N/A  
SPRINGVIEW N/A 85 76 74 CALM N/A HX 94  
VALENTINE NWR N/A 73 64 73 SW12G23 N/A  
HALSEY N/A 75 64 70 SW10G21 N/A  

 
   
..OBSERVATIONS IN SOUTHWEST NEBRASKA AND FAR NORTHEAST COLORADO
 
 
 
CITY SKY/WX TMP DP RH WIND PRES REMARKS  
WRAY CLOUDY 82 59 44 SW14 29.89  
HOLYOKE FAIR 82 63 51 SW6 29.90  
IMPERIAL SUNNY 81 65 58 MISG 29.87F  
OGALLALA SUNNY 81 61 50 SW8 29.86S  
NORTH PLATTE SUNNY 81 66 60 SW13G20 29.84F  
MCCOOK SUNNY 80 62 54 S17 29.88R  
LEXINGTON SUNNY 80 61 53 SW13G23 29.87R  
CALLAWAY N/A 74 67 79 S12 N/A  
STAPLETON N/A 76 67 72 W5G14 N/A  

 
   
..OBSERVATIONS IN CENTRAL LINCOLN COUNTY AREA
 
 
 
CITY SKY/WX TMP DP RH WIND PRES REMARKS  
N.P. AIRPORT SUNNY 81 66 60 SW13G20 29.84F  
N.P. HILLCREST N/A 78 67 68 SW12 N/A  
N.P. DOWNTOWN N/A 80 67 64 SW3G12 N/A  
N.P. SOUTHEAST N/A 79 67 65 S8G15 N/A  

 
   
..OBSERVATIONS ACROSS THE ROCKIES AND WESTERN HIGH PLAINS
 
 
 
CITY SKY/WX TMP DP RH WIND PRES REMARKS  
SCOTTSBLUFF PTSUNNY 75 46 35 W10 29.94R HAZE  
KIMBALL PTSUNNY 76 42 28 N9 29.99R  
CHEYENNE PTSUNNY 82 37 20 W30G43 30.07R  
DENVER PTSUNNY 88 43 20 NW13G18 30.01F  
STEAMBOAT FAIR 68 46 45 SE3 30.15  
COPPER MTN PTSUNNY 59 36 41 S18G24 30.61  
LEADVILLE PTSUNNY 54 43 66 CALM 30.45F  
ASPEN CLOUDY 65 48 54 SW7 30.28F  
GUNNISON MOSUNNY 63 45 51 N8 30.34R  
TELLURIDE PTSUNNY 68 39 34 CALM 30.43  
LARAMIE CLOUDY 69 36 29 W24G43 30.17R  
CASPER MOSUNNY 70 45 40 NE9 30.00R  
SHERIDAN PTSUNNY 71 42 35 SE6 29.93F  
JACKSON PTSUNNY 52 36 54 CALM 30.08R  
YELLOWSTONE N/A 52 46 80 CALM 30.14R  

 
   
..OBSERVATIONS ACROSS THE NORTHERN PLAINS
 
 
 
CITY SKY/WX TMP DP RH WIND PRES REMARKS  
RAPID CITY PTSUNNY 74 43 32 NW24G35 29.85R  
PIERRE SUNNY 80 63 55 W16G22 29.63R  
SIOUX FALLS MOSUNNY 78 66 66 S18G26 29.81F  
ABERDEEN MOSUNNY 81 64 56 S29G37 29.65F  
DICKINSON PTSUNNY 72 55 55 CALM 29.76R  
BISMARCK CLOUDY 72 63 73 NW5 29.68S  
FARGO MOSUNNY 76 64 66 SE16G29 29.74F  

 
   
..OBSERVATIONS ACROSS THE CENTRAL AND SOUTHERN PLAINS
 
 
 
CITY SKY/WX TMP DP RH WIND PRES REMARKS  
GRAND ISLAND SUNNY 79 64 60 S13 29.87S  
LINCOLN SUNNY 80 66 62 S15 29.88F  
OMAHA MOSUNNY 82 64 54 S16 29.89F  
DES MOINES MOSUNNY 79 65 62 S13 29.96S  
KANSAS CITY PTSUNNY 80 65 59 SE12 29.96S  
WICHITA MOSUNNY 80 63 55 S9 29.92S  
DODGE CITY SUNNY 77 67 71 S12 29.93R  
OKLAHOMA CITY PTSUNNY 75 66 73 NE6 29.91R  
DALLAS MOSUNNY 90 72 55 S6 29.89S HX 97  
AMARILLO SUNNY 89 52 28 S17 29.96F  

 
 
 
CLICK HERE TO GO TO PREVIOUS BULLETINS.

The Nexlab NE Page Main Text Page